TimeEDT,TemperatureF,Dew PointF,Humidity,Sea Level PressureIn,VisibilityMPH,Wind Direction,Wind SpeedMPH,Gust SpeedMPH,PrecipitationIn,Events,Conditions,WindDirDegrees,DateUTC
12:51 AM,35.1,27.0,72,29.82,10.0,West,5.8,-,N/A,,Clear,280,2013-03-20 04:51:00
1:51 AM,35.1,23.0,61,29.84,10.0,WNW,8.1,-,N/A,,Scattered Clouds,290,2013-03-20 05:51:00
2:51 AM,34.0,17.1,50,29.85,10.0,WNW,15.0,20.7,N/A,,Clear,290,2013-03-20 06:51:00
3:51 AM,33.1,18.0,54,29.86,10.0,WSW,8.1,-,N/A,,Clear,250,2013-03-20 07:51:00
4:51 AM,33.1,18.0,54,29.87,10.0,West,10.4,-,N/A,,Clear,260,2013-03-20 08:51:00
5:51 AM,30.9,18.0,59,29.88,10.0,SW,6.9,-,N/A,,Clear,230,2013-03-20 09:51:00
6:51 AM,30.9,19.0,61,29.88,10.0,SW,6.9,-,N/A,,Mostly Cloudy,220,2013-03-20 10:51:00
7:51 AM,33.1,18.0,54,29.88,10.0,WSW,8.1,-,N/A,,Clear,240,2013-03-20 11:51:00
8:51 AM,35.1,17.1,48,29.87,10.0,West,12.7,20.7,N/A,,Clear,280,2013-03-20 12:51:00
9:51 AM,37.0,17.1,44,29.87,10.0,WNW,16.1,24.2,N/A,,Partly Cloudy,290,2013-03-20 13:51:00
10:51 AM,36.0,18.0,48,29.88,10.0,West,16.1,26.5,N/A,,Mostly Cloudy,280,2013-03-20 14:51:00
11:51 AM,39.0,21.0,49,29.87,10.0,West,13.8,23.0,N/A,,Mostly Cloudy,280,2013-03-20 15:51:00
12:51 PM,39.9,21.0,47,29.85,10.0,WSW,12.7,19.6,N/A,,Scattered Clouds,250,2013-03-20 16:51:00
1:51 PM,42.1,19.0,40,29.83,10.0,West,16.1,20.7,N/A,,Partly Cloudy,260,2013-03-20 17:51:00
2:51 PM,44.1,19.9,38,29.80,10.0,WNW,11.5,-,N/A,,Partly Cloudy,290,2013-03-20 18:51:00
3:51 PM,44.1,19.9,38,29.78,10.0,WNW,13.8,25.3,N/A,,Mostly Cloudy,290,2013-03-20 19:51:00
4:51 PM,44.1,19.9,38,29.78,10.0,NW,12.7,19.6,N/A,,Overcast,310,2013-03-20 20:51:00
5:51 PM,45.0,19.0,36,29.78,10.0,West,17.3,23.0,N/A,,Overcast,260,2013-03-20 21:51:00
6:51 PM,42.1,21.0,43,29.79,10.0,WNW,3.5,-,N/A,,Mostly Cloudy,290,2013-03-20 22:51:00
7:51 PM,39.9,19.0,43,29.79,10.0,NW,4.6,-,N/A,,Clear,310,2013-03-20 23:51:00
8:51 PM,39.0,19.9,46,29.80,10.0,WNW,4.6,-,N/A,,Overcast,290,2013-03-21 00:51:00
9:51 PM,39.9,19.9,45,29.81,10.0,Calm,Calm,-,N/A,,Overcast,0,2013-03-21 01:51:00
10:51 PM,39.0,19.9,46,29.83,10.0,North,10.4,-,N/A,,Overcast,350,2013-03-21 02:51:00
11:51 PM,37.0,21.9,54,29.83,10.0,North,4.6,-,N/A,,Overcast,350,2013-03-21 03:51:00